Time,TemperatureF,DewpointF,PressureIn,WindDirection,WindDirectionDegrees,WindSpeedMPH,WindSpeedGustMPH,Humidity,HourlyPrecipIn,Conditions,Clouds,dailyrainin,SoftwareType,DateUTC
2013-05-03 00:00:00,39.4,36.1,30.28,NNW,336,3.0,3.0,88,0.00,,,0.00,Wunderground v.1.15,2013-05-03 05:00:00,
2013-05-03 00:05:00,39.4,36.1,30.28,NNW,336,2.0,4.0,88,0.00,,,0.00,Wunderground v.1.15,2013-05-03 05:05:00,
2013-05-03 00:15:00,39.3,36.0,30.27,NW,305,3.0,5.0,88,0.00,,,0.00,Wunderground v.1.15,2013-05-03 05:15:00,
2013-05-03 00:20:00,39.2,36.2,30.26,North,355,4.0,12.0,89,0.00,,,0.01,Wunderground v.1.15,2013-05-03 05:20:00,
2013-05-03 00:25:00,39.1,36.1,30.26,NNW,340,4.0,12.0,89,0.00,,,0.01,Wunderground v.1.15,2013-05-03 05:25:00,
2013-05-03 00:30:00,38.9,36.2,30.26,North,10,3.0,3.0,90,0.00,,,0.01,Wunderground v.1.15,2013-05-03 05:30:00,
2013-05-03 00:35:00,38.8,36.1,30.25,North,355,4.0,4.0,90,0.00,,,0.01,Wunderground v.1.15,2013-05-03 05:35:00,
2013-05-03 00:40:00,38.7,36.0,30.25,NNW,339,4.0,6.0,90,0.00,,,0.02,Wunderground v.1.15,2013-05-03 05:40:00,
2013-05-03 00:50:00,38.3,35.9,30.25,North,355,4.0,4.0,91,0.00,,,0.02,Wunderground v.1.15,2013-05-03 05:50:00,
2013-05-03 01:00:00,38.1,35.7,30.24,NNW,346,4.0,10.0,91,0.00,,,0.03,Wunderground v.1.15,2013-05-03 06:00:00,
2013-05-03 01:05:00,37.9,35.5,30.23,NW,304,5.0,10.0,91,0.00,,,0.03,Wunderground v.1.15,2013-05-03 06:05:00,
2013-05-03 01:15:00,37.8,35.7,30.23,NW,308,5.0,7.0,92,0.00,,,0.03,Wunderground v.1.15,2013-05-03 06:15:00,
2013-05-03 01:20:00,37.7,35.6,30.23,NNW,332,5.0,5.0,92,0.00,,,0.03,Wunderground v.1.15,2013-05-03 06:20:00,
2013-05-03 01:25:00,37.6,35.5,30.24,NNW,339,4.0,6.0,92,0.00,,,0.03,Wunderground v.1.15,2013-05-03 06:25:00,
2013-05-03 01:35:00,37.3,35.2,30.23,NNW,333,4.0,5.0,92,0.00,,,0.04,Wunderground v.1.15,2013-05-03 06:35:00,
2013-05-03 01:40:00,37.2,35.1,30.23,NNW,346,4.0,5.0,92,0.00,,,0.04,Wunderground v.1.15,2013-05-03 06:40:00,
2013-05-03 01:45:00,37.1,35.0,30.23,NNW,336,4.0,5.0,92,0.00,,,0.04,Wunderground v.1.15,2013-05-03 06:45:00,
2013-05-03 01:50:00,37.0,34.9,30.24,NNE,19,3.0,3.0,92,0.00,,,0.04,Wunderground v.1.15,2013-05-03 06:50:00,
2013-05-03 01:55:00,36.9,34.8,30.24,NW,318,2.0,3.0,92,0.04,,,0.05,Wunderground v.1.15,2013-05-03 06:55:00,
2013-05-03 02:05:00,36.8,34.7,30.23,NNE,32,4.0,4.0,92,0.04,,,0.05,Wunderground v.1.15,2013-05-03 07:05:00,
2013-05-03 02:15:00,36.7,34.6,30.23,NW,323,4.0,7.0,92,0.00,,,0.06,Wunderground v.1.15,2013-05-03 07:15:00,
2013-05-03 02:25:00,36.6,34.8,30.22,NNE,21,4.0,5.0,93,0.00,,,0.06,Wunderground v.1.15,2013-05-03 07:25:00,
2013-05-03 02:30:00,36.5,34.7,30.22,North,355,4.0,4.0,93,0.00,,,0.06,Wunderground v.1.15,2013-05-03 07:30:00,
2013-05-03 02:35:00,36.5,34.4,30.22,NNW,327,4.0,4.0,92,0.00,,,0.06,Wunderground v.1.15,2013-05-03 07:35:00,
2013-05-03 02:40:00,36.4,34.3,30.22,North,355,4.0,4.0,92,0.00,,,0.07,Wunderground v.1.15,2013-05-03 07:40:00,
2013-05-03 02:45:00,36.4,34.6,30.22,NW,313,4.0,4.0,93,0.00,,,0.07,Wunderground v.1.15,2013-05-03 07:45:00,
2013-05-03 02:50:00,36.4,34.6,30.22,NNW,329,4.0,4.0,93,0.00,,,0.07,Wunderground v.1.15,2013-05-03 07:50:00,
2013-05-03 02:55:00,36.4,34.6,30.22,NNW,346,3.0,6.0,93,0.00,,,0.07,Wunderground v.1.15,2013-05-03 07:55:00,
2013-05-03 03:00:00,36.3,34.5,30.21,NNW,342,4.0,5.0,93,0.00,,,0.07,Wunderground v.1.15,2013-05-03 08:00:00,
2013-05-03 03:05:00,36.2,34.4,30.21,NNW,344,4.0,5.0,93,0.00,,,0.07,Wunderground v.1.15,2013-05-03 08:05:00,
2013-05-03 03:15:00,36.2,34.4,30.21,NNW,341,5.0,5.0,93,0.00,,,0.08,Wunderground v.1.15,2013-05-03 08:15:00,
2013-05-03 03:20:00,36.2,34.4,30.21,NNW,344,4.0,4.0,93,0.00,,,0.08,Wunderground v.1.15,2013-05-03 08:20:00,
2013-05-03 03:25:00,36.2,34.4,30.21,NW,325,3.0,5.0,93,0.00,,,0.08,Wunderground v.1.15,2013-05-03 08:25:00,
2013-05-03 03:35:00,36.1,34.3,30.21,North,355,3.0,5.0,93,0.00,,,0.09,Wunderground v.1.15,2013-05-03 08:35:00,
2013-05-03 03:45:00,36.1,34.3,30.21,NNW,344,5.0,5.0,93,0.00,,,0.09,Wunderground v.1.15,2013-05-03 08:45:00,
2013-05-03 03:50:00,36.1,34.3,30.21,NNW,348,3.0,3.0,93,0.00,,,0.09,Wunderground v.1.15,2013-05-03 08:50:00,
2013-05-03 03:55:00,36.1,34.3,30.21,NNE,26,2.0,4.0,93,0.00,,,0.10,Wunderground v.1.15,2013-05-03 08:55:00,
2013-05-03 04:00:00,36.1,34.3,30.20,NNW,336,3.0,3.0,93,0.00,,,0.10,Wunderground v.1.15,2013-05-03 09:00:00,
2013-05-03 04:05:00,36.1,34.3,30.20,NNW,336,4.0,5.0,93,0.00,,,0.10,Wunderground v.1.15,2013-05-03 09:05:00,
2013-05-03 04:15:00,36.1,34.3,30.20,NNW,330,4.0,5.0,93,0.00,,,0.11,Wunderground v.1.15,2013-05-03 09:15:00,
2013-05-03 04:20:00,36.1,34.3,30.20,NNW,347,4.0,5.0,93,0.00,,,0.11,Wunderground v.1.15,2013-05-03 09:20:00,
2013-05-03 04:30:00,36.1,34.3,30.19,NNW,328,3.0,7.0,93,0.00,,,0.11,Wunderground v.1.15,2013-05-03 09:30:00,
2013-05-03 04:35:00,36.1,34.3,30.19,NNW,333,3.0,7.0,93,0.00,,,0.11,Wunderground v.1.15,2013-05-03 09:35:00,
2013-05-03 04:45:00,36.1,34.3,30.19,NNW,342,4.0,4.0,93,0.00,,,0.12,Wunderground v.1.15,2013-05-03 09:45:00,
2013-05-03 04:50:00,36.1,34.3,30.19,NNW,344,3.0,3.0,93,0.00,,,0.12,Wunderground v.1.15,2013-05-03 09:50:00,
2013-05-03 04:55:00,36.1,34.3,30.19,North,355,2.0,5.0,93,0.00,,,0.12,Wunderground v.1.15,2013-05-03 09:55:00,
2013-05-03 05:00:00,36.1,34.3,30.19,NNW,339,3.0,3.0,93,0.00,,,0.12,Wunderground v.1.15,2013-05-03 10:00:00,
2013-05-03 05:05:00,36.1,34.3,30.19,North,355,3.0,5.0,93,0.00,,,0.12,Wunderground v.1.15,2013-05-03 10:05:00,
2013-05-03 05:15:00,36.1,34.5,30.18,NNW,331,4.0,4.0,94,0.00,,,0.13,Wunderground v.1.15,2013-05-03 10:15:00,
2013-05-03 05:20:00,36.1,34.5,30.19,NE,36,4.0,4.0,94,0.00,,,0.13,Wunderground v.1.15,2013-05-03 10:20:00,
2013-05-03 05:25:00,36.1,34.5,30.18,NNE,20,2.0,4.0,94,0.00,,,0.13,Wunderground v.1.15,2013-05-03 10:25:00,
2013-05-03 05:30:00,36.1,34.5,30.18,NNW,347,2.0,2.0,94,0.00,,,0.13,Wunderground v.1.15,2013-05-03 10:30:00,
2013-05-03 05:35:00,36.1,34.5,30.18,NNE,18,2.0,2.0,94,0.00,,,0.13,Wunderground v.1.15,2013-05-03 10:35:00,
2013-05-03 05:40:00,36.1,34.5,30.18,NW,325,3.0,3.0,94,0.00,,,0.13,Wunderground v.1.15,2013-05-03 10:40:00,
2013-05-03 05:45:00,36.2,34.6,30.18,NW,315,2.0,3.0,94,0.00,,,0.13,Wunderground v.1.15,2013-05-03 10:45:00,
2013-05-03 05:55:00,36.2,34.6,30.18,NNE,27,1.0,2.0,94,0.00,,,0.13,Wunderground v.1.15,2013-05-03 10:55:00,
2013-05-03 06:00:00,36.3,34.7,30.18,NNW,345,0.0,0.0,94,0.00,,,0.13,Wunderground v.1.15,2013-05-03 11:00:00,
2013-05-03 06:05:00,36.4,34.8,30.18,NNW,344,1.0,1.0,94,0.00,,,0.13,Wunderground v.1.15,2013-05-03 11:05:00,
2013-05-03 06:15:00,36.4,34.8,30.17,North,360,2.0,2.0,94,0.00,,,0.13,Wunderground v.1.15,2013-05-03 11:15:00,
2013-05-03 06:25:00,36.5,34.9,30.18,NNW,348,1.0,4.0,94,0.00,,,0.14,Wunderground v.1.15,2013-05-03 11:25:00,
2013-05-03 06:30:00,36.6,35.0,30.17,NNW,346,2.0,2.0,94,0.00,,,0.14,Wunderground v.1.15,2013-05-03 11:30:00,
2013-05-03 06:35:00,36.6,35.0,30.17,North,349,3.0,3.0,94,0.00,,,0.14,Wunderground v.1.15,2013-05-03 11:35:00,
2013-05-03 06:40:00,36.6,35.0,30.17,NE,35,3.0,7.0,94,0.00,,,0.14,Wunderground v.1.15,2013-05-03 11:40:00,
2013-05-03 06:45:00,36.7,35.1,30.16,East,87,3.0,7.0,94,0.00,,,0.15,Wunderground v.1.15,2013-05-03 11:45:00,
2013-05-03 06:50:00,36.8,35.2,30.16,NNW,334,4.0,6.0,94,0.00,,,0.15,Wunderground v.1.15,2013-05-03 11:50:00,
2013-05-03 06:55:00,36.8,35.2,30.16,NW,323,3.0,6.0,94,0.00,,,0.15,Wunderground v.1.15,2013-05-03 11:55:00,
2013-05-03 07:00:00,36.9,35.3,30.16,NE,53,2.0,2.0,94,0.00,,,0.15,Wunderground v.1.15,2013-05-03 12:00:00,
2013-05-03 07:05:00,36.9,35.3,30.17,NNW,346,2.0,3.0,94,0.00,,,0.16,Wunderground v.1.15,2013-05-03 12:05:00,
2013-05-03 07:15:00,37.0,35.4,30.17,NNW,334,1.0,1.0,94,0.00,,,0.16,Wunderground v.1.15,2013-05-03 12:15:00,
2013-05-03 07:20:00,37.0,35.4,30.17,ENE,67,1.0,1.0,94,0.00,,,0.16,Wunderground v.1.15,2013-05-03 12:20:00,
2013-05-03 07:25:00,37.0,35.4,30.17,NNW,334,2.0,6.0,94,0.04,,,0.17,Wunderground v.1.15,2013-05-03 12:25:00,
2013-05-03 07:30:00,37.0,35.4,30.17,North,5,2.0,2.0,94,0.04,,,0.17,Wunderground v.1.15,2013-05-03 12:30:00,
2013-05-03 07:35:00,37.0,35.4,30.16,North,355,2.0,4.0,94,0.05,,,0.18,Wunderground v.1.15,2013-05-03 12:35:00,
2013-05-03 07:40:00,37.0,35.4,30.16,NNW,346,1.0,1.0,94,0.08,,,0.19,Wunderground v.1.15,2013-05-03 12:40:00,
2013-05-03 07:45:00,36.9,35.3,30.16,WSW,254,2.0,2.0,94,0.08,,,0.19,Wunderground v.1.15,2013-05-03 12:45:00,
2013-05-03 07:55:00,36.9,35.3,30.16,NNW,344,1.0,7.0,94,0.04,,,0.19,Wunderground v.1.15,2013-05-03 12:55:00,
2013-05-03 08:00:00,37.0,35.4,30.16,NE,46,2.0,2.0,94,0.04,,,0.20,Wunderground v.1.15,2013-05-03 13:00:00,
2013-05-03 08:05:00,37.0,35.4,30.16,NW,322,2.0,6.0,94,0.04,,,0.20,Wunderground v.1.15,2013-05-03 13:05:00,
2013-05-03 08:15:00,37.1,35.5,30.16,North,360,2.0,4.0,94,0.00,,,0.20,Wunderground v.1.15,2013-05-03 13:15:00,
2013-05-03 08:20:00,37.2,35.6,30.15,NNE,28,2.0,2.0,94,0.00,,,0.21,Wunderground v.1.15,2013-05-03 13:20:00,
2013-05-03 08:25:00,37.3,35.7,30.16,North,360,3.0,4.0,94,0.00,,,0.21,Wunderground v.1.15,2013-05-03 13:25:00,
2013-05-03 08:30:00,37.4,35.8,30.16,NNW,342,2.0,2.0,94,0.04,,,0.21,Wunderground v.1.15,2013-05-03 13:30:00,
2013-05-03 08:35:00,37.5,35.9,30.15,North,360,2.0,2.0,94,0.13,,,0.23,Wunderground v.1.15,2013-05-03 13:35:00,
2013-05-03 08:40:00,37.5,35.9,30.16,East,95,3.0,3.0,94,0.11,,,0.23,Wunderground v.1.15,2013-05-03 13:40:00,
2013-05-03 08:45:00,37.5,35.9,30.15,NNW,329,2.0,7.0,94,0.10,,,0.24,Wunderground v.1.15,2013-05-03 13:45:00,
2013-05-03 08:55:00,37.6,36.0,30.15,NNW,344,2.0,5.0,94,0.08,,,0.25,Wunderground v.1.15,2013-05-03 13:55:00,
2013-05-03 09:00:00,37.7,36.1,30.14,NNW,340,3.0,3.0,94,0.05,,,0.25,Wunderground v.1.15,2013-05-03 14:00:00,
2013-05-03 09:05:00,37.7,36.1,30.14,ENE,66,4.0,4.0,94,0.04,,,0.26,Wunderground v.1.15,2013-05-03 14:05:00,
2013-05-03 09:15:00,37.8,36.2,30.15,NNW,347,2.0,4.0,94,0.07,,,0.27,Wunderground v.1.15,2013-05-03 14:15:00,
2013-05-03 09:20:00,37.9,36.3,30.14,NNW,335,2.0,3.0,94,0.07,,,0.27,Wunderground v.1.15,2013-05-03 14:20:00,
2013-05-03 09:25:00,37.9,36.3,30.14,NW,323,2.0,6.0,94,0.05,,,0.27,Wunderground v.1.15,2013-05-03 14:25:00,
2013-05-03 09:30:00,38.0,36.4,30.14,NNW,342,3.0,3.0,94,0.04,,,0.28,Wunderground v.1.15,2013-05-03 14:30:00,
2013-05-03 09:35:00,38.1,36.5,30.14,NW,318,2.0,5.0,94,0.09,,,0.29,Wunderground v.1.15,2013-05-03 14:35:00,
2013-05-03 09:40:00,38.1,36.5,30.14,NW,309,2.0,2.0,94,0.07,,,0.29,Wunderground v.1.15,2013-05-03 14:40:00,
2013-05-03 09:45:00,38.2,36.6,30.13,North,349,2.0,2.0,94,0.06,,,0.30,Wunderground v.1.15,2013-05-03 14:45:00,
2013-05-03 09:55:00,38.3,36.7,30.12,NE,53,3.0,3.0,94,0.09,,,0.31,Wunderground v.1.15,2013-05-03 14:55:00,
2013-05-03 10:00:00,38.4,36.8,30.13,North,360,2.0,6.0,94,0.05,,,0.32,Wunderground v.1.15,2013-05-03 15:00:00,
2013-05-03 10:05:00,38.6,37.3,30.12,North,355,4.0,6.0,95,0.05,,,0.32,Wunderground v.1.15,2013-05-03 15:05:00,
2013-05-03 10:15:00,39.5,38.2,30.11,NNW,342,3.0,4.0,95,0.04,,,0.32,Wunderground v.1.15,2013-05-03 15:15:00,
2013-05-03 10:25:00,40.0,38.7,30.11,North,11,4.0,4.0,95,0.00,,,0.32,Wunderground v.1.15,2013-05-03 15:25:00,
2013-05-03 10:30:00,39.9,38.6,30.12,North,355,3.0,3.0,95,0.00,,,0.32,Wunderground v.1.15,2013-05-03 15:30:00,
2013-05-03 10:35:00,40.1,38.8,30.12,North,349,2.0,3.0,95,0.00,,,0.32,Wunderground v.1.15,2013-05-03 15:35:00,
2013-05-03 10:40:00,40.2,38.9,30.12,North,355,3.0,5.0,95,0.00,,,0.32,Wunderground v.1.15,2013-05-03 15:40:00,
2013-05-03 10:45:00,40.2,38.9,30.11,ENE,67,3.0,5.0,95,0.00,,,0.33,Wunderground v.1.15,2013-05-03 15:45:00,
2013-05-03 10:55:00,40.5,39.2,30.10,NNW,346,3.0,4.0,95,0.05,,,0.34,Wunderground v.1.15,2013-05-03 15:55:00,
2013-05-03 11:05:00,40.5,39.2,30.10,North,9,3.0,3.0,95,0.07,,,0.36,Wunderground v.1.15,2013-05-03 16:05:00,
2013-05-03 11:15:00,40.4,39.1,30.10,NNW,334,3.0,3.0,95,0.08,,,0.37,Wunderground v.1.15,2013-05-03 16:15:00,
2013-05-03 11:20:00,40.4,39.1,30.10,ENE,57,2.0,2.0,95,0.07,,,0.37,Wunderground v.1.15,2013-05-03 16:20:00,
2013-05-03 11:25:00,40.4,39.1,30.10,NNW,329,2.0,2.0,95,0.04,,,0.37,Wunderground v.1.15,2013-05-03 16:25:00,
2013-05-03 11:30:00,40.4,39.1,30.10,NNE,24,1.0,3.0,95,0.00,,,0.38,Wunderground v.1.15,2013-05-03 16:30:00,
2013-05-03 11:40:00,40.6,39.3,30.11,East,98,1.0,1.0,95,0.07,,,0.39,Wunderground v.1.15,2013-05-03 16:40:00,
2013-05-03 11:50:00,40.8,39.5,30.12,East,87,0.0,0.0,95,0.27,,,0.43,Wunderground v.1.15,2013-05-03 16:50:00,
2013-05-03 11:55:00,40.9,39.6,30.11,East,87,0.0,0.0,95,0.11,,,0.43,Wunderground v.1.15,2013-05-03 16:55:00,
2013-05-03 12:00:00,41.1,39.8,30.10,East,100,0.0,4.0,95,0.06,,,0.43,Wunderground v.1.15,2013-05-03 17:00:00,
2013-05-03 12:05:00,41.1,39.8,30.10,East,99,1.0,4.0,95,0.06,,,0.44,Wunderground v.1.15,2013-05-03 17:05:00,
2013-05-03 12:15:00,41.4,40.1,30.11,NNW,337,1.0,2.0,95,0.05,,,0.45,Wunderground v.1.15,2013-05-03 17:15:00,
2013-05-03 12:20:00,41.6,40.3,30.11,NNW,336,1.0,1.0,95,0.05,,,0.45,Wunderground v.1.15,2013-05-03 17:20:00,
2013-05-03 12:25:00,41.7,40.4,30.10,ESE,103,1.0,1.0,95,0.04,,,0.45,Wunderground v.1.15,2013-05-03 17:25:00,
2013-05-03 12:35:00,42.0,40.7,30.10,NNW,331,1.0,1.0,95,0.04,,,0.46,Wunderground v.1.15,2013-05-03 17:35:00,
2013-05-03 12:40:00,42.1,40.8,30.11,NW,315,1.0,1.0,95,0.05,,,0.47,Wunderground v.1.15,2013-05-03 17:40:00,
2013-05-03 12:45:00,42.2,40.9,30.11,NW,314,0.0,1.0,95,0.85,,,0.51,Wunderground v.1.15,2013-05-03 17:45:00,
2013-05-03 12:50:00,42.3,41.0,30.10,NW,315,0.0,0.0,95,0.20,,,0.52,Wunderground v.1.15,2013-05-03 17:50:00,
2013-05-03 13:00:00,42.5,41.2,30.10,NNE,18,0.0,0.0,95,0.13,,,0.54,Wunderground v.1.15,2013-05-03 18:00:00,
2013-05-03 13:05:00,42.7,41.4,30.09,NNE,24,0.0,3.0,95,0.12,,,0.55,Wunderground v.1.15,2013-05-03 18:05:00,
2013-05-03 13:15:00,42.8,41.5,30.08,ESE,108,0.0,1.0,95,0.14,,,0.57,Wunderground v.1.15,2013-05-03 18:15:00,
2013-05-03 13:20:00,42.8,41.5,30.08,NNW,338,0.0,0.0,95,0.12,,,0.58,Wunderground v.1.15,2013-05-03 18:20:00,
2013-05-03 13:25:00,43.0,41.7,30.09,ESE,117,0.0,0.0,95,0.08,,,0.58,Wunderground v.1.15,2013-05-03 18:25:00,
2013-05-03 13:30:00,43.2,41.9,30.08,NNW,334,1.0,1.0,95,0.06,,,0.59,Wunderground v.1.15,2013-05-03 18:30:00,
2013-05-03 13:35:00,43.7,42.6,30.08,NNE,14,0.0,1.0,96,0.06,,,0.59,Wunderground v.1.15,2013-05-03 18:35:00,
2013-05-03 13:40:00,43.8,42.5,30.08,NNW,339,1.0,3.0,95,0.06,,,0.59,Wunderground v.1.15,2013-05-03 18:40:00,
2013-05-03 13:50:00,43.6,42.3,30.08,WNW,299,1.0,1.0,95,0.00,,,0.60,Wunderground v.1.15,2013-05-03 18:50:00,
2013-05-03 13:55:00,43.6,42.3,30.08,East,84,1.0,1.0,95,0.00,,,0.60,Wunderground v.1.15,2013-05-03 18:55:00,
2013-05-03 14:00:00,43.6,42.3,30.08,ESE,114,1.0,2.0,95,0.06,,,0.61,Wunderground v.1.15,2013-05-03 19:00:00,
2013-05-03 14:05:00,43.8,42.5,30.08,NNW,331,1.0,4.0,95,0.06,,,0.61,Wunderground v.1.15,2013-05-03 19:05:00,
2013-05-03 14:15:00,44.3,43.2,30.07,ESE,119,1.0,2.0,96,0.05,,,0.62,Wunderground v.1.15,2013-05-03 19:15:00,
2013-05-03 14:20:00,44.3,43.2,30.07,NNW,339,1.0,1.0,96,0.05,,,0.62,Wunderground v.1.15,2013-05-03 19:20:00,
2013-05-03 14:25:00,44.6,43.3,30.07,ENE,78,1.0,1.0,95,0.16,,,0.64,Wunderground v.1.15,2013-05-03 19:25:00,
2013-05-03 14:30:00,44.7,43.4,30.07,NNW,327,1.0,4.0,95,0.22,,,0.66,Wunderground v.1.15,2013-05-03 19:30:00,
2013-05-03 14:40:00,44.5,43.2,30.06,NNW,330,1.0,1.0,95,0.18,,,0.69,Wunderground v.1.15,2013-05-03 19:40:00,
2013-05-03 14:45:00,44.3,43.0,30.06,NNW,343,1.0,1.0,95,0.14,,,0.70,Wunderground v.1.15,2013-05-03 19:45:00,
2013-05-03 14:55:00,44.1,42.8,30.07,NE,36,0.0,1.0,95,0.24,,,0.72,Wunderground v.1.15,2013-05-03 19:55:00,
2013-05-03 15:00:00,44.1,43.0,30.07,NNE,31,0.0,0.0,96,0.44,,,0.76,Wunderground v.1.15,2013-05-03 20:00:00,
2013-05-03 15:05:00,44.2,43.1,30.08,ENE,60,0.0,0.0,96,0.16,,,0.77,Wunderground v.1.15,2013-05-03 20:05:00,
2013-05-03 15:15:00,44.1,43.0,30.07,ENE,59,0.0,0.0,96,0.17,,,0.81,Wunderground v.1.15,2013-05-03 20:15:00,
2013-05-03 15:25:00,44.4,43.3,30.07,NW,309,1.0,1.0,96,0.05,,,0.81,Wunderground v.1.15,2013-05-03 20:25:00,
2013-05-03 15:30:00,44.5,43.4,30.07,ENE,61,0.0,3.0,96,0.00,,,0.82,Wunderground v.1.15,2013-05-03 20:30:00,
2013-05-03 15:35:00,44.5,43.4,30.06,NNW,341,1.0,3.0,96,0.00,,,0.82,Wunderground v.1.15,2013-05-03 20:35:00,
2013-05-03 15:40:00,44.7,43.6,30.06,North,355,1.0,1.0,96,0.00,,,0.82,Wunderground v.1.15,2013-05-03 20:40:00,
2013-05-03 15:45:00,44.9,43.8,30.06,North,350,1.0,1.0,96,0.00,,,0.82,Wunderground v.1.15,2013-05-03 20:45:00,
2013-05-03 15:50:00,44.7,43.6,30.06,North,360,2.0,2.0,96,0.00,,,0.82,Wunderground v.1.15,2013-05-03 20:50:00,
2013-05-03 15:55:00,45.0,43.9,30.06,NNE,28,2.0,2.0,96,0.00,,,0.82,Wunderground v.1.15,2013-05-03 20:55:00,
2013-05-03 16:05:00,45.0,43.9,30.05,NE,36,1.0,1.0,96,0.00,,,0.82,Wunderground v.1.15,2013-05-03 21:05:00,
2013-05-03 16:15:00,45.3,44.2,30.05,North,350,2.0,2.0,96,0.00,,,0.82,Wunderground v.1.15,2013-05-03 21:15:00,
2013-05-03 16:25:00,45.6,44.5,30.04,NNW,332,2.0,4.0,96,0.00,,,0.82,Wunderground v.1.15,2013-05-03 21:25:00,
2013-05-03 16:30:00,45.9,44.8,30.04,North,360,1.0,2.0,96,0.00,,,0.82,Wunderground v.1.15,2013-05-03 21:30:00,
2013-05-03 16:40:00,46.0,44.9,30.04,North,355,2.0,2.0,96,0.00,,,0.83,Wunderground v.1.15,2013-05-03 21:40:00,
2013-05-03 16:45:00,46.0,44.9,30.03,East,96,1.0,2.0,96,0.00,,,0.83,Wunderground v.1.15,2013-05-03 21:45:00,
2013-05-03 16:50:00,46.0,44.9,30.02,ESE,109,0.0,1.0,96,0.00,,,0.83,Wunderground v.1.15,2013-05-03 21:50:00,
2013-05-03 16:55:00,46.2,45.1,30.02,North,355,1.0,2.0,96,0.00,,,0.83,Wunderground v.1.15,2013-05-03 21:55:00,
2013-05-03 17:05:00,46.5,45.4,30.03,WNW,302,1.0,2.0,96,0.00,,,0.84,Wunderground v.1.15,2013-05-03 22:05:00,
2013-05-03 17:15:00,46.5,45.4,30.03,East,79,1.0,1.0,96,0.00,,,0.85,Wunderground v.1.15,2013-05-03 22:15:00,
2013-05-03 17:20:00,46.5,45.4,30.03,East,80,1.0,1.0,96,0.00,,,0.85,Wunderground v.1.15,2013-05-03 22:20:00,
2013-05-03 17:25:00,46.7,45.6,30.03,NE,45,1.0,1.0,96,0.07,,,0.86,Wunderground v.1.15,2013-05-03 22:25:00,
2013-05-03 17:30:00,46.7,45.6,30.03,NW,315,1.0,1.0,96,0.07,,,0.86,Wunderground v.1.15,2013-05-03 22:30:00,
2013-05-03 17:35:00,46.8,45.7,30.04,NE,55,1.0,1.0,96,0.05,,,0.86,Wunderground v.1.15,2013-05-03 22:35:00,
2013-05-03 17:40:00,46.9,45.8,30.03,North,355,0.0,0.0,96,0.04,,,0.87,Wunderground v.1.15,2013-05-03 22:40:00,
2013-05-03 17:45:00,46.9,45.8,30.03,NNW,333,1.0,1.0,96,0.04,,,0.87,Wunderground v.1.15,2013-05-03 22:45:00,
2013-05-03 17:50:00,47.0,45.9,30.03,NNE,12,2.0,2.0,96,0.05,,,0.88,Wunderground v.1.15,2013-05-03 22:50:00,
2013-05-03 17:55:00,47.0,45.9,30.04,North,5,1.0,2.0,96,0.05,,,0.88,Wunderground v.1.15,2013-05-03 22:55:00,
2013-05-03 18:05:00,47.2,46.1,30.04,NNE,13,1.0,1.0,96,0.00,,,0.88,Wunderground v.1.15,2013-05-03 23:05:00,
2013-05-03 18:15:00,47.2,46.1,30.04,North,9,1.0,3.0,96,0.00,,,0.89,Wunderground v.1.15,2013-05-03 23:15:00,
2013-05-03 18:20:00,47.3,46.2,30.03,NW,314,1.0,1.0,96,0.08,,,0.90,Wunderground v.1.15,2013-05-03 23:20:00,
2013-05-03 18:25:00,47.3,46.2,30.02,NNW,330,2.0,2.0,96,0.18,,,0.91,Wunderground v.1.15,2013-05-03 23:25:00,
2013-05-03 18:35:00,47.4,46.3,30.02,NNW,337,1.0,3.0,96,0.05,,,0.91,Wunderground v.1.15,2013-05-03 23:35:00,
2013-05-03 18:40:00,47.5,46.4,30.02,North,350,2.0,2.0,96,0.00,,,0.91,Wunderground v.1.15,2013-05-03 23:40:00,
2013-05-03 18:45:00,47.6,46.5,30.02,NNW,338,2.0,2.0,96,0.00,,,0.92,Wunderground v.1.15,2013-05-03 23:45:00,
2013-05-03 18:50:00,47.6,46.5,30.02,NNE,25,2.0,2.0,96,0.00,,,0.92,Wunderground v.1.15,2013-05-03 23:50:00,
2013-05-03 18:55:00,47.6,46.5,30.02,East,94,2.0,2.0,96,0.00,,,0.92,Wunderground v.1.15,2013-05-03 23:55:00,
2013-05-03 19:00:00,47.6,46.5,30.02,NNW,344,1.0,1.0,96,0.00,,,0.92,Wunderground v.1.15,2013-05-04 00:00:00,
2013-05-03 19:05:00,47.6,46.8,30.02,NNW,338,2.0,3.0,97,0.00,,,0.92,Wunderground v.1.15,2013-05-04 00:05:00,
2013-05-03 19:15:00,47.6,46.8,30.02,North,351,0.0,1.0,97,0.00,,,0.92,Wunderground v.1.15,2013-05-04 00:15:00,
2013-05-03 19:25:00,47.6,46.8,30.02,NNW,342,1.0,1.0,97,0.00,,,0.92,Wunderground v.1.15,2013-05-04 00:25:00,
2013-05-03 19:30:00,47.6,46.8,30.03,NNW,327,1.0,4.0,97,0.00,,,0.92,Wunderground v.1.15,2013-05-04 00:30:00,
2013-05-03 19:35:00,47.6,46.8,30.03,North,349,1.0,4.0,97,0.00,,,0.92,Wunderground v.1.15,2013-05-04 00:35:00,
2013-05-03 19:40:00,47.7,46.9,30.03,NE,49,1.0,1.0,97,0.00,,,0.92,Wunderground v.1.15,2013-05-04 00:40:00,
2013-05-03 19:45:00,47.7,46.9,30.02,NW,307,1.0,2.0,97,0.00,,,0.92,Wunderground v.1.15,2013-05-04 00:45:00,
2013-05-03 19:50:00,47.7,46.9,30.03,NW,323,2.0,2.0,97,0.00,,,0.92,Wunderground v.1.15,2013-05-04 00:50:00,
2013-05-03 20:00:00,47.8,47.0,30.03,ENE,61,1.0,1.0,97,0.00,,,0.92,Wunderground v.1.15,2013-05-04 01:00:00,
2013-05-03 20:05:00,47.8,47.0,30.03,NW,321,1.0,1.0,97,0.00,,,0.92,Wunderground v.1.15,2013-05-04 01:05:00,
2013-05-03 20:15:00,47.9,46.8,30.03,ENE,74,1.0,1.0,96,0.00,,,0.92,Wunderground v.1.15,2013-05-04 01:15:00,
2013-05-03 20:20:00,47.9,46.8,30.03,NNE,15,2.0,2.0,96,0.00,,,0.92,Wunderground v.1.15,2013-05-04 01:20:00,
2013-05-03 20:25:00,48.0,46.9,30.03,NW,318,1.0,2.0,96,0.00,,,0.92,Wunderground v.1.15,2013-05-04 01:25:00,
2013-05-03 20:30:00,48.1,47.0,30.02,NNW,342,1.0,2.0,96,0.00,,,0.92,Wunderground v.1.15,2013-05-04 01:30:00,
2013-05-03 20:35:00,48.1,47.0,30.02,East,94,2.0,2.0,96,0.00,,,0.92,Wunderground v.1.15,2013-05-04 01:35:00,
2013-05-03 20:40:00,48.2,48.2,30.02,North,360,2.0,2.0,100,0.00,,,0.92,Wunderground v.1.15,2013-05-04 01:40:00,
2013-05-03 20:45:00,48.3,47.5,30.02,NNW,332,2.0,4.0,97,0.00,,,0.92,Wunderground v.1.15,2013-05-04 01:45:00,
2013-05-03 20:50:00,48.3,47.5,30.02,NNW,329,1.0,1.0,97,0.00,,,0.92,Wunderground v.1.15,2013-05-04 01:50:00,
2013-05-03 21:00:00,48.4,47.6,30.03,ENE,67,1.0,1.0,97,0.00,,,0.92,Wunderground v.1.15,2013-05-04 02:00:00,
2013-05-03 21:05:00,48.5,47.7,30.03,ENE,63,1.0,1.0,97,0.00,,,0.92,Wunderground v.1.15,2013-05-04 02:05:00,
2013-05-03 21:15:00,48.6,47.8,30.03,NNW,334,1.0,1.0,97,0.00,,,0.92,Wunderground v.1.15,2013-05-04 02:15:00,
2013-05-03 21:25:00,48.6,47.8,30.03,WSW,240,1.0,1.0,97,0.00,,,0.92,Wunderground v.1.15,2013-05-04 02:25:00,
2013-05-03 21:30:00,48.6,47.8,30.03,East,84,0.0,1.0,97,0.00,,,0.92,Wunderground v.1.15,2013-05-04 02:30:00,
2013-05-03 21:35:00,48.6,47.8,30.03,East,87,1.0,1.0,97,0.00,,,0.92,Wunderground v.1.15,2013-05-04 02:35:00,
2013-05-03 21:40:00,48.6,47.8,30.03,East,87,1.0,1.0,97,0.00,,,0.92,Wunderground v.1.15,2013-05-04 02:40:00,
2013-05-03 21:50:00,48.7,47.9,30.03,ENE,67,1.0,1.0,97,0.00,,,0.92,Wunderground v.1.15,2013-05-04 02:50:00,
2013-05-03 21:55:00,48.7,47.9,30.03,NE,56,2.0,2.0,97,0.00,,,0.92,Wunderground v.1.15,2013-05-04 02:55:00,
2013-05-03 22:00:00,48.8,48.0,30.03,East,91,1.0,1.0,97,0.00,,,0.92,Wunderground v.1.15,2013-05-04 03:00:00,
2013-05-03 22:05:00,48.8,48.0,30.03,NW,317,0.0,2.0,97,0.00,,,0.92,Wunderground v.1.15,2013-05-04 03:05:00,
2013-05-03 22:15:00,48.9,48.1,30.03,ESE,108,1.0,1.0,97,0.00,,,0.92,Wunderground v.1.15,2013-05-04 03:15:00,
2013-05-03 22:20:00,48.9,48.1,30.03,South,169,1.0,1.0,97,0.00,,,0.92,Wunderground v.1.15,2013-05-04 03:20:00,
2013-05-03 22:25:00,49.0,48.2,30.02,West,262,1.0,1.0,97,0.00,,,0.92,Wunderground v.1.15,2013-05-04 03:25:00,
2013-05-03 22:30:00,49.0,48.2,30.02,NW,310,1.0,1.0,97,0.00,,,0.92,Wunderground v.1.15,2013-05-04 03:30:00,
2013-05-03 22:35:00,49.0,48.2,30.02,ENE,59,1.0,1.0,97,0.00,,,0.92,Wunderground v.1.15,2013-05-04 03:35:00,
2013-05-03 22:45:00,49.0,48.2,30.02,NW,316,1.0,1.0,97,0.00,,,0.92,Wunderground v.1.15,2013-05-04 03:45:00,
2013-05-03 22:50:00,49.0,48.2,30.02,East,96,1.0,1.0,97,0.00,,,0.92,Wunderground v.1.15,2013-05-04 03:50:00,
2013-05-03 22:55:00,49.1,48.3,30.02,NW,307,1.0,1.0,97,0.00,,,0.92,Wunderground v.1.15,2013-05-04 03:55:00,
2013-05-03 23:00:00,49.1,48.3,30.02,NNE,27,2.0,3.0,97,0.00,,,0.92,Wunderground v.1.15,2013-05-04 04:00:00,
2013-05-03 23:05:00,49.1,48.3,30.01,North,360,2.0,3.0,97,0.00,,,0.92,Wunderground v.1.15,2013-05-04 04:05:00,
2013-05-03 23:10:00,49.0,48.2,30.01,SSE,156,1.0,1.0,97,0.00,,,0.92,Wunderground v.1.15,2013-05-04 04:10:00,
2013-05-03 23:15:00,49.0,48.2,30.01,NNE,28,1.0,4.0,97,0.00,,,0.92,Wunderground v.1.15,2013-05-04 04:15:00,
2013-05-03 23:20:00,49.1,48.3,30.02,SE,134,1.0,1.0,97,0.00,,,0.92,Wunderground v.1.15,2013-05-04 04:20:00,
2013-05-03 23:25:00,49.1,48.0,30.02,ESE,109,1.0,1.0,96,0.00,,,0.92,Wunderground v.1.15,2013-05-04 04:25:00,
2013-05-03 23:30:00,49.2,48.1,30.01,ENE,73,1.0,1.0,96,0.00,,,0.92,Wunderground v.1.15,2013-05-04 04:30:00,
2013-05-03 23:35:00,49.2,48.1,30.01,SE,143,1.0,1.0,96,0.00,,,0.92,Wunderground v.1.15,2013-05-04 04:35:00,
2013-05-03 23:45:00,49.3,48.2,30.01,East,80,1.0,1.0,96,0.00,,,0.92,Wunderground v.1.15,2013-05-04 04:45:00,
2013-05-03 23:50:00,49.4,48.6,30.01,South,173,1.0,1.0,97,0.00,,,0.92,Wunderground v.1.15,2013-05-04 04:50:00,